This is the latest recevied weather packets stored in our database for station/object K1ZK-13. If no packets are shown the sender has not sent any weather packets the latest 10 day(s).
| Time | Temp. | Humidity | Pressure | Rain* | Wind** | Luminosity | Snow |
|---|---|---|---|---|---|---|---|
| 1777807341 | 5° C | 88% | 1011.5 hPa | 0 mm | - | 81 W/m² | - |
| 1777807036 | 5° C | 89% | 1011.5 hPa | 0 mm | - | 75 W/m² | - |
| 1777806733 | 5° C | 89% | 1011.5 hPa | 0 mm | - | 67 W/m² | - |
| 1777806429 | 4.44° C | 89% | 1011.4 hPa | 0 mm | - | 62 W/m² | - |
| 1777806126 | 4.44° C | 90% | 1011.4 hPa | 0 mm | - | 56 W/m² | - |
| 1777805823 | 4.44° C | 91% | 1011.4 hPa | 0 mm | - | 49 W/m² | - |
| 1777805520 | 4.44° C | 91% | 1011.4 hPa | 0 mm | - | 44 W/m² | - |
| 1777805217 | 4.44° C | 92% | 1011.3 hPa | 0 mm | - | 37 W/m² | - |
| 1777804915 | 3.89° C | 93% | 1011.3 hPa | 0 mm | - | 34 W/m² | - |
| 1777804613 | 3.89° C | 93% | 1011.3 hPa | 0 mm | - | 30 W/m² | - |
| 1777804311 | 3.89° C | 94% | 1011.3 hPa | 0 mm | - | 22 W/m² | - |
| 1777804007 | 3.89° C | 94% | 1011.2 hPa | 0 mm | - | 22 W/m² | - |
| 1777803704 | 3.89° C | 94% | 1011.2 hPa | 0 mm | - | 20 W/m² | - |
| 1777803399 | 3.89° C | 95% | 1011.3 hPa | 0 mm | - | 15 W/m² | - |
| 1777803098 | 3.89° C | 96% | 1011.2 hPa | 0 mm | - | 9 W/m² | - |
| 1777802794 | 3.89° C | 96% | 1011.1 hPa | 0 mm | - | 9 W/m² | - |
| 1777802492 | 3.89° C | 97% | 1011.2 hPa | 0 mm | - | 7 W/m² | - |
| 1777802190 | 3.33° C | 98% | 1011.1 hPa | 0 mm | - | 4 W/m² | - |
| 1777801584 | 3.33° C | 98% | 1011 hPa | 0 mm | - | 1 W/m² | - |
| 1777801282 | 3.33° C | 98% | 1011.1 hPa | 0 mm | - | 1 W/m² | - |
| 1777800978 | 3.33° C | 99% | 1011 hPa | 0 mm | - | 0 W/m² | - |
| 1777800675 | 3.33° C | 99% | 1011.3 hPa | 0 mm | - | 0 W/m² | - |
| 1777800370 | 3.33° C | 99% | 1011.2 hPa | 0 mm | - | 0 W/m² | - |
| 1777800067 | 3.33° C | 99% | 1011.1 hPa | 0 mm | - | 0 W/m² | - |
| 1777799762 | 3.33° C | 99% | 1011.4 hPa | 0 mm | - | 0 W/m² | - |
* Rain latest hour (hover to see other rain measurements)
** Current wind speed in m/s (hover to see current wind gust speed)